This is the latest recevied weather packets stored in our database for station/object WD7OO. If no packets are shown the sender has not sent any weather packets the latest 10 day(s).
| Time | Temp. | Humidity | Pressure | Rain* | Wind** | Luminosity | Snow |
|---|---|---|---|---|---|---|---|
| 1788468985 | 30.56° C | 67% | 1015.5 hPa | 0 mm | - | 371 W/m² | - |
| 1788468679 | 30.56° C | 66% | 1015.7 hPa | 0 mm | - | 404 W/m² | - |
| 1788468375 | 30.56° C | 65% | 1015.4 hPa | 0 mm | - | 413 W/m² | - |
| 1788468070 | 31.11° C | 64% | 1015.2 hPa | 0 mm | - | 433 W/m² | - |
| 1788467766 | 30.56° C | 62% | 1015.4 hPa | 0 mm | - | 451 W/m² | - |
| 1788467460 | 30.56° C | 63% | 1015.3 hPa | 0 mm | - | 463 W/m² | - |
| 1788467156 | 30.56° C | 65% | 1015.3 hPa | 0 mm | - | 445 W/m² | - |
| 1788466851 | 30.56° C | 63% | 1015.4 hPa | 0 mm | - | 484 W/m² | - |
| 1788466545 | 30° C | 64% | 1014.9 hPa | 0 mm | - | 504 W/m² | - |
| 1788466245 | 30° C | 66% | 1015.3 hPa | 0 mm | - | 501 W/m² | - |
| 1788465940 | 30° C | 68% | 1014.9 hPa | 0 mm | - | 523 W/m² | - |
| 1788465635 | 29.44° C | 67% | 1014.9 hPa | 0 mm | - | 493 W/m² | - |
| 1788465331 | 30° C | 65% | 1014.6 hPa | 0 mm | - | 323 W/m² | - |
| 1788465026 | 30° C | 66% | 1014.7 hPa | 0 mm | - | 543 W/m² | - |
| 1788464722 | 30° C | 65% | 1014.8 hPa | 0 mm | - | 470 W/m² | - |
| 1788464417 | 30° C | 63% | 1014.9 hPa | 0 mm | - | 569 W/m² | - |
| 1788464113 | 30° C | 66% | 1015.1 hPa | 0 mm | - | 604 W/m² | - |
| 1788463808 | 29.44° C | 66% | 1014.9 hPa | 0 mm | - | 565 W/m² | - |
| 1788463505 | 30° C | 65% | 1015.1 hPa | 0 mm | - | 606 W/m² | - |
| 1788463205 | 30° C | 66% | 1015.3 hPa | 0 mm | - | 524 W/m² | - |
| 1788462901 | 29.44° C | 69% | 1015.4 hPa | 0 mm | - | 582 W/m² | - |
| 1788462601 | 28.89° C | 70% | 1015.6 hPa | 0 mm | - | 456 W/m² | - |
| 1788462295 | 28.89° C | 68% | 1015.8 hPa | 0 mm | - | 503 W/m² | - |
| 1788461989 | 28.33° C | 70% | 1015.8 hPa | 0 mm | - | 435 W/m² | - |
| 1788461685 | 28.89° C | 68% | 1016 hPa | 0 mm | - | 334 W/m² | - |
* Rain latest hour (hover to see other rain measurements)
** Current wind speed in m/s (hover to see current wind gust speed)